Location: *
(58.7167°N, 26.1833°E)
Time: 02:49:42
(UTC+00:00)

Nimbus 7 Rocket - Pass Details

Date: 25 August 2019
Orbit: 922 x 965 km, 99.4° (Epoch: 23 October)

Event Time Altitude Azimuth Distance (km) Brightness Sun altitude
Rises 21:22:35 0° 18° (NNE) 3,663 8.5 -19.8°
Reaches altitude 10° 21:25:03 10° 21° (NNE) 2,715 7.6 -19.9°
Maximum altitude 21:31:10 77° 107° (ESE) 998 4.4 -20.0°
Enters shadow 21:33:59 34° 188° (S) 1,536 5.0 -20.1°
